Find STARLINK-36303

NORAD ID: 70602 Constellation: starlink operational
LEOCIRCULAR

实时位置

正在加载3D地球...

关于 STARLINK-36303

正在加载描述...

即将过境

Passes for default location (London). Set your location on the main map for personalized predictions.

高度历史

Loading altitude history...

两行轨道根数

1 70602C 26099U 26122.92548611 .00087561 00000+0 10447-3 0 1223
2 70602 53.1634 22.3756 0005731 288.6917 28.2627 16.07591037 18
Epoch: May 2, 2026 • Age: 31 hours